Wind_Speed
19 21 23 23 22 22 21 19 18 16 13 12 11 10 10 10 10 10 10 10 11 12 12 13 13 14 15 15 16 16 16 17 16 15 15 13 11 10 9 8 8 8 7
20 22 23 24 24 24 23 20 19 16 14 12 11 11 10 10 11 11 11 11 12 12 12 12 12 14 14 14 14 14 16 16 12 8 8 4 5 5 5 5 5 5 5
21 22 24 25 24 25 25 23 21 18 15 13 12 11 10 10 10 11 11 12 12 13 13 13 13 13 14 14 14 14 12 11 7 7 6 2 1 2 1 1 1 1 1
19 21 24 24 24 24 24 23 22 20 17 14 12 9 8 9 10 11 12 12 13 13 14 13 13 14 14 15 14 14 13 9 5 6 3 3 3 3 1 2 3 3 3
18 22 23 23 22 23 24 24 22 22 19 15 13 10 8 9 9 11 12 13 13 14 14 14 15 15 16 16 16 17 15 12 8 6 5 5 5 5 4 4 5 6 6
14 20 20 21 21 22 22 23 24 23 21 18 15 11 9 9 10 10 12 13 13 14 14 15 15 16 17 18 18 18 18 17 14 11 9 8 4 6 5 5 6 5 8
13 18 19 21 21 21 22 23 23 23 22 19 17 13 10 9 9 10 11 12 13 14 15 15 16 16 16 18 19 20 20 20 19 16 13 12 11 10 8 9 9 8 11
13 15 16 18 19 19 21 21 22 22 22 20 18 16 13 11 11 11 12 12 12 13 15 15 16 17 18 19 19 20 21 22 21 19 17 16 15 14 13 13 13 9 10
14 14 15 15 16 17 19 19 21 20 21 21 20 18 15 13 12 13 14 13 13 14 15 15 17 18 19 19 20 21 22 22 21 21 20 19 18 17 16 15 14 12 10
15 15 15 16 15 16 18 18 18 18 19 20 19 18 16 14 13 13 14 14 14 14 15 16 17 18 19 20 21 21 22 22 22 22 21 21 20 19 18 17 17 16 14
15 15 15 16 16 16 17 17 17 17 17 18 18 17 16 15 15 15 14 15 16 16 16 16 17 18 19 20 21 22 23 23 24 23 23 23 22 21 20 19 19 18 18
15 15 16 17 17 17 16 16 15 15 15 15 15 15 15 15 15 14 14 15 16 17 16 17 18 19 20 21 22 23 24 25 26 26 26 26 24 24 22 21 20 20 19
15 15 15 15 16 16 16 15 14 13 12 12 12 12 12 13 13 14 15 15 16 17 17 18 19 20 21 22 22 23 24 25 26 26 26 27 26 26 25 24 23 21 19
16 15 15 15 16 16 14 13 12 11 10 10 9 9 10 10 11 12 13 14 15 15 17 18 19 20 22 24 24 25 25 26 27 28 28 28 28 27 26 25 23 21 19
20 19 18 16 16 14 13 12 11 10 10 9 9 9 9 10 11 11 12 13 14 16 18 18 18 19 21 24 26 27 28 27 27 28 28 29 28 28 27 26 24 22 19
19 19 17 16 16 14 13 12 10 9 8 7 6 7 8 10 11 13 15 16 17 18 20 21 22 24 24 25 26 25 28 28 29 30 29 30 30 30 28 27 26 23 23
21 20 18 17 15 13 12 10 8 7 6 5 4 4 5 8 10 13 15 17 19 20 21 22 23 25 27 26 26 26 30 31 32 31 32 33 32 31 31 29 27 28 26
21 19 17 15 14 12 10 8 7 7 5 5 6 7 8 10 11 12 14 17 21 23 24 26 25 26 25 27 28 26 27 31 35 35 35 35 33 31 33 35 34 32 31
21 19 16 15 13 11 9 7 6 5 6 7 9 11 13 14 15 16 17 17 19 20 23 26 27 28 26 26 23 23 25 31 30 33 34 33 32 31 33 34 34 29 26
19 17 14 12 10 8 6 5 6 7 9 11 14 16 16 16 17 18 19 19 20 20 21 23 24 27 28 28 25 21 23 30 27 27 29 30 32 30 29 30 29 28 26
17 14 12 10 8 7 6 7 8 10 12 14 15 16 18 19 20 20 21 21 21 21 21 23 24 25 27 27 25 23 24 30 31 29 29 29 29 29 29 29 28 27 24
14 11 9 7 6 6 7 9 10 12 14 15 16 17 18 19 20 21 21 21 22 23 23 23 25 25 26 26 26 26 24 28 32 33 30 29 27 29 30 29 28 26 23
11 9 8 7 6 7 8 9 10 12 12 13 14 15 15 16 16 18 20 21 22 24 25 25 27 26 26 27 26 26 27 28 32 35 34 30 28 26 29 28 32 28 28
9 7 6 5 6 7 8 9 9 10 11 12 13 14 15 16 17 18 19 21 22 24 25 25 26 25 25 24 25 24 25 28 29 33 34 31 29 25 29 30 28 28 27
7 6 5 5 6 7 7 8 9 10 10 11 12 13 14 15 16 17 18 20 22 22 23 24 23 22 23 23 22 21 21 22 26 32 31 27 25 24 28 29 33 31 26
5 4 4 4 5 6 7 8 9 10 12 12 13 14 16 16 17 18 21 19 18 19 21 23 24 27 26 22 21 23 22 20 20 26 34 31 29 30 31 30 30 28 29
Wind_Direction
193 186 186 187 183 184 181 190 192 194 196 193 193 193 194 194 194 193 184 178 174 167 161 158 156 154 152 150 149 148 144 137 129 126 117 111 109 111 108 106 103 99 93
185 184 186 188 187 186 185 191 196 198 196 194 191 191 199 196 200 196 193 186 181 178 173 170 168 168 165 163 159 156 150 143 137 132 87 91 83 105 111 112 110 106 98
190 188 189 190 189 189 187 193 198 199 198 199 197 198 203 206 205 203 200 196 194 191 190 186 185 184 180 177 172 169 162 153 147 137 136 95 162 152 131 137 142 139 124
201 196 193 191 193 191 189 191 198 201 200 203 199 198 203 210 213 210 209 205 204 202 202 201 198 196 196 193 189 185 181 172 176 187 170 176 211 149 232 267 253 250 246
204 196 194 192 191 190 188 188 197 202 203 200 200 195 190 200 210 213 215 213 213 212 211 210 210 207 206 205 204 203 202 202 199 218 239 240 233 212 215 276 269 257 255
189 189 188 185 183 182 183 184 197 202 204 202 201 201 205 218 217 220 221 221 221 220 220 220 221 221 218 218 218 218 220 224 230 241 251 235 239 253 228 228 267 268 262
155 169 173 174 176 179 183 187 195 200 204 204 205 207 213 221 219 222 224 227 229 228 228 228 229 230 230 230 230 231 232 235 240 243 247 234 242 242 238 233 250 237 269
143 159 166 168 174 177 183 188 194 199 204 206 209 212 217 223 222 226 225 229 232 233 233 231 233 234 234 234 236 237 239 242 244 246 245 245 250 250 253 248 253 233 259
133 138 145 153 161 170 179 185 192 198 204 208 211 215 220 224 227 228 228 229 233 238 239 238 237 238 240 241 242 243 245 246 247 248 249 250 251 251 252 251 251 245 239
130 127 129 134 140 156 169 176 184 192 200 206 212 218 225 228 231 236 240 240 242 244 245 246 246 246 246 245 246 247 248 249 249 249 249 247 249 250 251 251 247 242 228
137 131 130 135 141 148 158 167 174 183 192 201 210 219 225 228 231 236 240 242 241 246 249 250 250 251 251 251 250 250 251 251 251 250 249 248 249 250 250 249 247 241 233
138 134 134 135 138 145 153 162 170 180 190 201 210 217 225 230 236 241 244 245 246 248 253 256 257 256 256 256 256 255 253 252 251 250 248 248 248 247 247 245 244 241 235
142 139 136 138 141 145 152 161 168 175 184 193 203 212 220 226 231 237 240 243 245 248 252 254 257 258 258 258 260 261 259 256 253 251 250 249 248 246 245 242 240 237 233
150 146 142 143 150 156 160 163 169 174 179 186 195 207 217 226 234 240 242 244 246 251 257 260 260 261 260 259 258 259 256 256 253 252 251 248 248 247 245 243 240 237 232
162 159 157 156 155 156 159 164 173 180 188 197 208 217 224 232 238 241 243 244 246 253 261 262 264 266 265 264 265 264 260 255 254 253 251 249 248 245 243 240 236 231 234
164 161 157 153 152 153 153 155 160 166 175 190 209 228 240 246 251 255 256 260 258 259 260 263 262 261 263 266 265 261 258 255 253 252 252 247 244 242 238 233 230 239 245
166 163 161 158 156 156 160 166 173 180 188 196 211 239 258 265 267 267 267 267 265 266 264 267 266 266 266 265 264 261 256 252 251 250 249 247 245 238 234 231 238 242 245
170 167 168 165 166 170 176 183 189 196 208 237 258 266 270 274 277 278 276 272 267 264 262 264 266 271 277 265 261 259 263 259 252 247 246 246 243 239 240 246 251 246 243
175 175 173 174 178 185 192 199 211 232 261 274 277 281 287 291 293 294 291 288 283 277 271 265 264 263 272 277 262 263 262 259 259 259 257 257 256 255 252 250 245 239 229
172 175 177 181 188 195 207 226 252 266 272 276 278 281 283 284 287 290 292 292 290 286 280 276 272 265 268 271 270 269 253 252 258 258 256 255 256 252 248 243 236 233 224
170 175 180 186 196 211 231 246 260 273 281 281 279 279 280 282 284 286 289 291 291 288 285 281 279 274 271 270 265 263 247 251 252 258 257 252 248 247 243 231 225 224 219
169 175 183 196 214 234 250 263 270 274 274 274 275 276 278 279 280 282 284 286 289 289 288 285 283 280 276 272 267 262 253 254 253 256 257 255 252 246 241 223 219 220 213
170 178 192 209 231 252 264 269 270 269 270 274 279 282 282 283 282 282 283 283 282 282 284 283 283 282 282 279 273 264 259 250 250 252 256 256 255 251 236 214 213 214 216
170 181 204 228 247 259 265 268 270 276 280 281 282 284 287 287 285 284 284 284 282 281 281 280 280 279 278 277 278 273 261 254 245 249 250 255 250 248 220 207 213 222 209
178 193 212 237 254 265 273 279 285 288 290 292 294 297 296 295 292 289 285 283 278 275 274 273 274 273 274 275 280 278 270 260 250 239 239 235 233 225 213 214 207 212 207
187 205 228 250 266 277 283 288 292 295 297 300 302 302 299 298 296 292 289 283 282 279 270 267 269 269 269 269 263 267 264 260 257 231 226 226 226 218 204 210 208 212 208
Height
1510 1514 1521 1525 1527 1531 1533 1536 1539 1542 1545 1548 1550 1552 1554 1556 1558 1560 1562 1563 1565 1567 1569 1570 1572 1574 1575 1577 1579 1581 1583 1584 1586 1587 1589 1591 1592 1593 1593 1594 1594 1594 1594
1508 1512 1517 1521 1524 1528 1531 1534 1538 1541 1545 1548 1550 1551 1553 1555 1557 1559 1561 1563 1566 1568 1570 1572 1573 1575 1577 1579 1581 1582 1584 1585 1587 1589 1591 1593 1596 1595 1595 1595 1595 1595 1595
1505 1508 1513 1517 1521 1525 1529 1532 1536 1540 1543 1546 1549 1551 1553 1555 1557 1559 1561 1563 1565 1568 1570 1572 1574 1575 1578 1580 1581 1583 1585 1587 1588 1589 1592 1594 1595 1595 1595 1596 1596 1596 1596
1502 1505 1510 1514 1519 1522 1527 1530 1534 1538 1541 1545 1548 1550 1552 1554 1556 1558 1560 1563 1565 1567 1569 1571 1573 1575 1578 1580 1582 1584 1585 1587 1588 1590 1591 1592 1593 1594 1595 1595 1595 1596 1596
1497 1501 1506 1511 1516 1520 1523 1527 1532 1536 1540 1544 1547 1549 1552 1553 1555 1557 1559 1561 1564 1566 1568 1570 1572 1574 1577 1579 1581 1583 1584 1586 1588 1589 1590 1591 1591 1592 1593 1593 1594 1595 1595
1493 1498 1504 1509 1514 1517 1521 1524 1528 1533 1538 1542 1545 1548 1551 1552 1554 1556 1558 1560 1562 1565 1567 1569 1571 1573 1575 1577 1579 1582 1583 1585 1586 1587 1589 1590 1591 1591 1592 1593 1592 1593 1593
1492 1497 1501 1505 1510 1513 1517 1521 1526 1531 1535 1539 1543 1546 1549 1551 1553 1554 1556 1558 1560 1563 1565 1567 1569 1571 1573 1575 1577 1579 1581 1582 1584 1585 1587 1588 1588 1589 1590 1591 1591 1592 1591
1492 1496 1500 1503 1507 1510 1514 1518 1523 1528 1532 1537 1541 1544 1547 1549 1551 1552 1554 1556 1558 1560 1562 1564 1566 1568 1570 1572 1574 1576 1578 1579 1581 1582 1584 1585 1586 1587 1588 1589 1589 1589 1589
1493 1496 1499 1502 1505 1509 1512 1517 1522 1526 1530 1534 1537 1540 1543 1546 1548 1550 1552 1553 1555 1557 1559 1561 1563 1565 1567 1569 1571 1573 1575 1576 1578 1579 1580 1582 1582 1583 1584 1586 1586 1587 1586
1494 1496 1498 1501 1505 1507 1511 1515 1520 1524 1527 1531 1534 1537 1540 1543 1546 1547 1549 1551 1553 1555 1557 1558 1560 1562 1564 1566 1567 1569 1570 1572 1574 1575 1577 1577 1578 1579 1581 1582 1582 1583 1584
1494 1495 1497 1500 1503 1506 1510 1514 1518 1521 1525 1528 1531 1534 1537 1540 1542 1545 1547 1548 1550 1552 1553 1555 1556 1558 1560 1561 1563 1564 1566 1568 1569 1570 1572 1573 1574 1575 1576 1577 1578 1579 1580
1493 1495 1497 1500 1503 1506 1510 1513 1517 1520 1523 1526 1529 1532 1534 1537 1539 1542 1543 1545 1547 1548 1550 1551 1553 1554 1556 1557 1558 1560 1561 1562 1563 1565 1566 1567 1569 1570 1571 1572 1573 1574 1575
1493 1495 1498 1500 1502 1506 1509 1512 1515 1518 1521 1524 1526 1529 1532 1534 1536 1538 1540 1541 1543 1544 1546 1547 1548 1549 1551 1553 1554 1555 1556 1558 1559 1560 1561 1563 1564 1565 1566 1568 1568 1569 1571
1492 1495 1497 1499 1502 1505 1508 1511 1514 1517 1520 1522 1525 1527 1529 1531 1533 1534 1535 1537 1538 1540 1541 1542 1544 1545 1546 1547 1549 1550 1551 1552 1553 1554 1556 1557 1559 1561 1562 1563 1564 1565 1567
1489 1492 1495 1498 1501 1505 1508 1511 1513 1516 1518 1521 1523 1525 1527 1528 1530 1531 1532 1533 1534 1536 1537 1538 1539 1540 1541 1542 1543 1544 1545 1546 1547 1548 1550 1551 1553 1555 1557 1558 1559 1560 1562
1488 1492 1495 1498 1501 1504 1507 1510 1512 1515 1517 1519 1521 1523 1524 1526 1527 1528 1529 1529 1530 1531 1532 1533 1534 1535 1535 1536 1537 1538 1539 1540 1541 1542 1543 1545 1546 1548 1550 1552 1553 1556 1557
1487 1491 1494 1497 1500 1503 1506 1509 1511 1513 1515 1517 1519 1520 1521 1522 1523 1524 1524 1525 1526 1526 1527 1527 1528 1528 1529 1530 1530 1531 1531 1532 1534 1536 1537 1538 1540 1541 1543 1545 1547 1549 1551
1485 1489 1493 1497 1500 1502 1505 1507 1509 1511 1513 1514 1516 1517 1518 1518 1519 1519 1520 1520 1520 1520 1521 1521 1521 1521 1521 1522 1523 1523 1524 1524 1525 1527 1528 1531 1533 1535 1538 1539 1541 1543 1544
1483 1488 1492 1495 1498 1500 1503 1505 1507 1508 1509 1510 1511 1512 1512 1513 1513 1513 1514 1514 1514 1514 1514 1514 1514 1514 1514 1515 1515 1516 1516 1516 1518 1519 1521 1524 1526 1528 1530 1531 1533 1535 1538
1483 1487 1491 1494 1496 1499 1500 1502 1504 1505 1506 1507 1507 1508 1508 1508 1508 1508 1508 1508 1508 1507 1507 1507 1507 1507 1507 1508 1509 1510 1510 1509 1511 1513 1514 1516 1518 1521 1523 1524 1527 1529 1532
1483 1486 1489 1492 1494 1496 1498 1499 1501 1501 1502 1503 1503 1504 1503 1503 1503 1503 1503 1503 1502 1501 1500 1500 1500 1500 1500 1501 1502 1504 1503 1503 1505 1506 1508 1509 1512 1514 1517 1519 1521 1524 1528
1482 1485 1488 1490 1492 1494 1495 1496 1497 1498 1498 1499 1499 1499 1499 1499 1498 1498 1498 1497 1496 1495 1495 1494 1493 1493 1493 1493 1495 1496 1497 1497 1498 1498 1501 1503 1506 1508 1511 1514 1516 1519 1522
1481 1484 1486 1488 1490 1491 1493 1493 1494 1495 1495 1495 1495 1494 1494 1494 1493 1493 1492 1492 1492 1490 1490 1488 1487 1486 1486 1485 1487 1488 1490 1491 1491 1492 1494 1497 1500 1502 1504 1508 1511 1514 1517
1480 1483 1485 1486 1488 1489 1490 1490 1491 1491 1491 1491 1491 1490 1490 1489 1488 1487 1486 1486 1485 1484 1484 1482 1481 1480 1480 1479 1479 1480 1481 1483 1485 1485 1487 1490 1493 1496 1498 1502 1505 1507 1511
1480 1482 1483 1484 1485 1486 1487 1487 1487 1487 1487 1487 1486 1486 1485 1484 1483 1482 1481 1480 1480 1480 1479 1478 1477 1476 1474 1474 1474 1474 1474 1476 1478 1478 1481 1483 1485 1489 1492 1495 1499 1501 1506
1478 1480 1481 1482 1483 1484 1484 1484 1484 1484 1484 1483 1482 1481 1480 1479 1478 1477 1475 1475 1474 1474 1473 1472 1471 1470 1468 1468 1469 1469 1469 1470 1471 1472 1472 1475 1478 1482 1486 1489 1493 1497 1499